When you browse on this site, cookies collect data to enhance your experience and personalize the content and advertising you see.
Visit our Privacy Policy to learn more. By continuing to use the site, you agree to this use of cookies and data.
  • In Hungary
  • List of Countries
  • For 7 days
  • Water Temperature
  • Weather Map
  • News
  • Weather Widgets
  • user-avatar
    Login

    Hourly Weather Podory

    Today, 24 September, Tuesday

    Time Temperature Precipitation Wind Pressure Humidity
    00:00 +4°C° 0 mm 2 mps 756 mmHg 77%
    01:00 +3°C° 0 mm 2 mps 756 mmHg 79%
    02:00 +3°C° 0 mm 2 mps 756 mmHg 83%
    03:00 +3°C° 0 mm 2 mps 756 mmHg 83%
    04:00 +2°C° 0 mm 2 mps 756 mmHg 83%
    05:00 +2°C° 0 mm 2 mps 755 mmHg 83%
    06:00 +3°C° 0 mm 2 mps 755 mmHg 81%
    07:00 +4°C° 0 mm 2 mps 755 mmHg 79%
    08:00 +5°C° 0 mm 2 mps 755 mmHg 78%
    09:00 +6°C° 0.1 mm 2 mps 755 mmHg 75%
    10:00 +7°C° 0.1 mm 2 mps 755 mmHg 73%
    11:00 +8°C° 0.1 mm 2 mps 755 mmHg 71%
    12:00 +8°C° 0.2 mm 2 mps 755 mmHg 70%
    13:00 +9°C° 0.2 mm 2 mps 755 mmHg 69%
    14:00 +9°C° 0.2 mm 2 mps 755 mmHg 68%
    15:00 +10°C° 0.1 mm 1 mps 755 mmHg 71%
    16:00 +9°C° 0.1 mm 1 mps 755 mmHg 74%
    17:00 +8°C° 0.1 mm 1 mps 755 mmHg 78%
    18:00 +7°C° 0 mm 1 mps 755 mmHg 81%
    19:00 +5°C° 0 mm 0 mps 755 mmHg 83%
    20:00 +3°C° 0 mm 0 mps 754 mmHg 86%
    21:00 +3°C° 0 mm 0 mps 755 mmHg 86%
    22:00 +2°C° 0 mm 0 mps 755 mmHg 87%
    23:00 +3°C° 0 mm 1 mps 755 mmHg 87%

    Tomorrow, 25 September, Wednesday

    Time Temperature Precipitation Wind Pressure Humidity
    00:00 +3°C° 0 mm 1 mps 755 mmHg 88%
    01:00 +3°C° 0 mm 1 mps 755 mmHg 90%
    02:00 +3°C° 0 mm 1 mps 755 mmHg 91%
    03:00 +3°C° 0 mm 1 mps 754 mmHg 91%
    04:00 +2°C° 0 mm 1 mps 754 mmHg 92%
    05:00 +2°C° 0 mm 1 mps 754 mmHg 92%
    06:00 +3°C° 0 mm 1 mps 754 mmHg 89%
    07:00 +4°C° 0 mm 1 mps 754 mmHg 85%
    08:00 +5°C° 0 mm 1 mps 754 mmHg 82%
    09:00 +6°C° 0 mm 1 mps 754 mmHg 76%
    10:00 +8°C° 0 mm 1 mps 754 mmHg 70%
    11:00 +9°C° 0 mm 1 mps 754 mmHg 64%
    12:00 +10°C° 0 mm 1 mps 754 mmHg 60%
    13:00 +11°C° 0 mm 1 mps 754 mmHg 57%
    14:00 +11°C° 0 mm 1 mps 754 mmHg 54%
    15:00 +11°C° 0 mm 1 mps 754 mmHg 58%
    16:00 +10°C° 0 mm 1 mps 753 mmHg 62%
    17:00 +8°C° 0 mm 0 mps 753 mmHg 67%
    18:00 +7°C° 0 mm 0 mps 753 mmHg 71%
    19:00 +6°C° 0 mm 1 mps 753 mmHg 75%
    20:00 +5°C° 0 mm 1 mps 753 mmHg 80%
    21:00 +4°C° 0 mm 1 mps 753 mmHg 82%
    22:00 +4°C° 0 mm 1 mps 754 mmHg 85%
    23:00 +3°C° 0 mm 1 mps 754 mmHg 87%

    Day after tomorrow, 26 September, Thursday

    Time Temperature Precipitation Wind Pressure Humidity
    00:00 +3°C° 0 mm 1 mps 754 mmHg 88%
    01:00 +3°C° 0 mm 1 mps 754 mmHg 89%
    02:00 +3°C° 0 mm 1 mps 754 mmHg 90%
    03:00 +2°C° 0 mm 0 mps 754 mmHg 91%
    04:00 +1°C° 0 mm 0 mps 754 mmHg 91%
    05:00 +1°C° 0 mm 0 mps 754 mmHg 91%
    06:00 +3°C° 0 mm 0 mps 754 mmHg 86%
    07:00 +4°C° 0 mm 0 mps 754 mmHg 81%
    08:00 +5°C° 0 mm 0 mps 754 mmHg 76%
    09:00 +7°C° 0 mm 0 mps 755 mmHg 70%
    10:00 +9°C° 0 mm 0 mps 755 mmHg 63%
    11:00 +12°C° 0 mm 1 mps 755 mmHg 56%
    12:00 +11°C° 0 mm 0 mps 755 mmHg 54%
    13:00 +12°C° 0 mm 0 mps 755 mmHg 52%
    14:00 +12°C° 0 mm 0 mps 755 mmHg 50%
    15:00 +11°C° 0 mm 0 mps 755 mmHg 56%
    16:00 +10°C° 0 mm 0 mps 755 mmHg 61%
    17:00 +10°C° 0 mm 1 mps 755 mmHg 67%
    18:00 +8°C° 0 mm 0 mps 755 mmHg 71%
    19:00 +6°C° 0 mm 0 mps 755 mmHg 75%
    20:00 +5°C° 0 mm 0 mps 755 mmHg 79%
    21:00 +5°C° 0 mm 0 mps 755 mmHg 81%
    22:00 +4°C° 0 mm 0 mps 755 mmHg 82%
    23:00 +4°C° 0 mm 0 mps 756 mmHg 84%

    27 September, Friday

    Time Temperature Precipitation Wind Pressure Humidity
    00:00 +4°C° 0 mm 0 mps 756 mmHg 85%
    01:00 +3°C° 0 mm 0 mps 756 mmHg 86%
    02:00 +3°C° 0 mm 0 mps 756 mmHg 87%
    03:00 +3°C° 0 mm 0 mps 756 mmHg 88%
    04:00 +3°C° 0 mm 0 mps 756 mmHg 89%
    05:00 +3°C° 0 mm 0 mps 756 mmHg 89%
    06:00 +4°C° 0 mm 0 mps 756 mmHg 85%
    07:00 +5°C° 0 mm 0 mps 756 mmHg 80%
    08:00 +6°C° 0 mm 0 mps 756 mmHg 76%
    09:00 +8°C° 0 mm 0 mps 756 mmHg 69%
    10:00 +10°C° 0 mm 0 mps 756 mmHg 63%
    11:00 +12°C° 0 mm 0 mps 756 mmHg 57%
    12:00 +12°C° 0 mm 0 mps 756 mmHg 56%
    13:00 +14°C° 0 mm 1 mps 756 mmHg 54%
    14:00 +14°C° 0 mm 1 mps 755 mmHg 53%
    15:00 +12°C° 0 mm 0 mps 755 mmHg 58%
    16:00 +11°C° 0 mm 0 mps 755 mmHg 63%
    17:00 +10°C° 0 mm 0 mps 755 mmHg 69%
    18:00 +9°C° 0 mm 0 mps 755 mmHg 72%
    19:00 +9°C° 0 mm 1 mps 755 mmHg 76%
    20:00 +7°C° 0 mm 1 mps 755 mmHg 79%
    21:00 +7°C° 0 mm 1 mps 755 mmHg 81%
    22:00 +7°C° 0 mm 1 mps 755 mmHg 83%
    23:00 +6°C° 0 mm 1 mps 755 mmHg 85%

    28 September, Saturday

    Time Temperature Precipitation Wind Pressure Humidity
    00:00 +6°C° 0 mm 1 mps 755 mmHg 85%
    01:00 +5°C° 0 mm 2 mps 755 mmHg 86%
    02:00 +4°C° 0 mm 2 mps 754 mmHg 86%
    03:00 +4°C° 0 mm 2 mps 754 mmHg 87%
    04:00 +4°C° 0 mm 2 mps 754 mmHg 88%
    05:00 +4°C° 0 mm 2 mps 753 mmHg 89%
    06:00 +5°C° 0 mm 2 mps 753 mmHg 86%
    07:00 +5°C° 0 mm 3 mps 753 mmHg 82%
    08:00 +7°C° 0 mm 3 mps 753 mmHg 79%
    09:00 +9°C° 0 mm 3 mps 752 mmHg 75%
    10:00 +11°C° 0 mm 3 mps 752 mmHg 70%
    11:00 +12°C° 0 mm 3 mps 752 mmHg 66%
    12:00 +13°C° 0 mm 3 mps 751 mmHg 65%
    13:00 +13°C° 0 mm 4 mps 751 mmHg 63%
    14:00 +14°C° 0 mm 4 mps 750 mmHg 62%
    15:00 +13°C° 0 mm 3 mps 750 mmHg 67%
    16:00 +12°C° 0 mm 3 mps 749 mmHg 71%
    17:00 +11°C° 0 mm 3 mps 749 mmHg 76%
    18:00 +11°C° 0 mm 3 mps 748 mmHg 79%
    19:00 +10°C° 0 mm 3 mps 748 mmHg 83%
    20:00 +10°C° 0 mm 3 mps 748 mmHg 86%
    21:00 +10°C° 0.4 mm 3 mps 747 mmHg 89%
    22:00 +10°C° 0.4 mm 3 mps 747 mmHg 93%
    23:00 +10°C° 0.4 mm 2 mps 747 mmHg 96%

    29 September, Sunday

    Time Temperature Precipitation Wind Pressure Humidity
    00:00 +10°C° 0.5 mm 2 mps 747 mmHg 97%
    01:00 +10°C° 0.5 mm 2 mps 746 mmHg 97%
    02:00 +10°C° 0.5 mm 2 mps 746 mmHg 98%
    03:00 +10°C° 0.1 mm 2 mps 746 mmHg 98%
    04:00 +10°C° 0.1 mm 2 mps 745 mmHg 98%
    05:00 +10°C° 0.1 mm 2 mps 745 mmHg 98%
    06:00 +10°C° 0 mm 2 mps 745 mmHg 97%
    07:00 +10°C° 0 mm 2 mps 745 mmHg 97%
    08:00 +10°C° 0 mm 2 mps 745 mmHg 96%
    09:00 +12°C° 0.1 mm 2 mps 745 mmHg 95%
    10:00 +12°C° 0.1 mm 2 mps 745 mmHg 95%
    11:00 +12°C° 0.1 mm 2 mps 745 mmHg 94%
    12:00 +11°C° 0.2 mm 3 mps 744 mmHg 93%
    13:00 +11°C° 0.2 mm 3 mps 744 mmHg 93%
    14:00 +12°C° 0.2 mm 3 mps 744 mmHg 93%
    15:00 +12°C° 0.1 mm 3 mps 744 mmHg 92%
    16:00 +12°C° 0.1 mm 3 mps 744 mmHg 91%
    17:00 +13°C° 0.1 mm 2 mps 744 mmHg 91%
    18:00 +11°C° 0.1 mm 3 mps 744 mmHg 92%
    19:00 +10°C° 0.1 mm 3 mps 744 mmHg 94%
    20:00 +10°C° 0.1 mm 3 mps 744 mmHg 95%
    21:00 +10°C° 0 mm 3 mps 744 mmHg 95%
    22:00 +9°C° 0 mm 3 mps 744 mmHg 96%
    23:00 +9°C° 0 mm 3 mps 743 mmHg 96%
    Show more